{"data":{"norad_id":64150,"intl_designator":"2025-112E","name":"STARLINK-34209","alt_names":[],"object_type":"PAYLOAD","status":"ACTIVE","operator":null,"country":"US","launch_date":"2025-05-27","launch_site_code":"AFWTR","launch_vehicle":null,"mission":null,"orbit_class":"UNKNOWN","rcs_meters":null,"size_class":null,"mass_kg":null,"dimensions":null,"purposes":["comms"],"wikipedia_slug":null,"has_3d_model":false,"image_url":null,"decayed_at":null,"tle_current":{"epoch":"2026-05-25T03:06:06.577056Z","epoch_age_seconds":63968,"freshness":"FRESH","line1":"1 64150U 25112E   26145.12924279 -.00014272  00000+0 -98828-3 0  9996","line2":"2 64150  97.4514 196.5457 0001470 184.5936 175.5277 15.05605416 54818","mean_motion":15.05605416,"eccentricity":0.000147,"inclination_deg":97.4514,"raan_deg":196.5457,"arg_perigee_deg":184.5936,"mean_anomaly_deg":175.5277,"bstar":-0.00098828,"rev_number":5481,"period_min":95.642589000889,"perigee_km":548.62953003127,"apogee_km":550.6662987961,"semimajor_km":6927.7849144137,"source":"CELESTRAK","updated_at":"2026-05-25T13:38:20.302484Z"}}}